Simultaneous Nadir Overpasses (SNOs) Predictions

Prediction of SNOs between NOAA-19 and METOP-C Satellite Orbit:

Table of predicted SNOs for the next 14.0 days since TLE Epoch: 2/19/2022
Index Date (NOAA-19) Time (NOAA-19) Lat,Lon (NOAA-19) SZA (NOAA-19 ) Date (METOP-C) Time (METOP-C) Lat,Lon (METOP-C) SZA (METOP-C ) Distance(km) Time Diff (sec)
1 02/28/2022 13:36:51 80.77, 7.74 89.69 02/28/2022 13:38:06 80.76, 7.67 89.70 2.00 75
2 02/28/2022 14:27:47 -80.77, 175.08 90.32 02/28/2022 14:28:48 -80.76, 175.09 90.31 0.83 61
3 02/28/2022 15:18:50 80.76, -17.37 89.69 02/28/2022 15:19:27 80.77, -17.47 89.70 2.00 37
4 02/28/2022 16:09:46 -80.76, 149.98 90.32 02/28/2022 16:10:09 -80.78, 149.95 90.31 1.68 23
5 02/28/2022 17:00:50 80.76, -42.84 89.66 02/28/2022 17:00:49 80.76, -42.96 89.65 2.25 1
6 02/28/2022 17:51:46 -80.76, 124.51 90.35 02/28/2022 17:51:31 -80.77, 124.45 90.35 1.23 15
7 02/28/2022 18:42:50 80.76, -68.31 89.64 02/28/2022 18:42:11 80.75, -68.45 89.61 2.84 39
8 02/28/2022 19:33:46 -80.76, 99.05 90.37 02/28/2022 19:32:53 -80.76, 98.96 90.40 1.48 53



Historial Predications of SNOs between NOAA-19 and METOP-C
